Flag for Bosnia-Herzegovina Weather past 2 weeks in Sarajevo, Bosnia-Herzegovina

Now
68 °F

Clear.


Feels Like: 68 °F
Forecast: 55 / 87 °F
Wind: 2 mph from North

Location: Sarajevo / Butmir

Current Time: Jul 5, 2015 at 11:09:39 PM

Latest Report: Jul 5, 2015 at 11:00 PM


Visibility: 10 mi

Pressure: 30.15 "Hg (28.36 "Hg at 526m altitude)

Humidity: 78%

Dew point: 61 °F

Location of SarajevoLocation

Historic Weather in Sarajevo — Graph

°F

Sarajevo temperature yesterday

Maximum temperature yesterday: 84 °F (at 4:00 PM)
Minimum temperature yesterday: 52 °F (at 5:00 AM)
Average temperature yesterday: 70 °F

Past Weeks' High & Low Weather Summary

 TemperatureHumidityPressure
High84 °F (Jul 4, 4:00 PM)100% (Jun 20, 10:30 PM)30.36 "Hg (Jun 20, 10:30 PM)
Low45 °F (Jun 22, 3:00 AM)31% (Jun 22, 6:00 PM)29.92 "Hg (Jun 23, 2:00 PM)
Average64 °F71%30.16 "Hg
* Reported Jun 20 9:00 PM — Jul 5 9:30 PM, Sarajevo, Weather by CustomWeather, © 2015

Note: Actual official high and low records may vary slightly from our data, if they occured in-between our weather recording intervals... More about our weather records

Advertising

Sarajevo weather history for previous 24 hours

 ConditionsComfort  
Time TempWeatherWind HumidityBarometerVisibility
9:30 PM
Sun, Jul 5
72 °FPassing clouds.2 mph73%30.15 "HgN/A
9:00 PM75 °FPassing clouds.2 mph65%30.15 "HgN/A
8:30 PM79 °FPassing clouds.1 mph54%30.12 "HgN/A
8:00 PM79 °FPassing clouds.2 mph58%30.12 "HgN/A
7:30 PM81 °FPassing clouds.3 mph51%30.12 "HgN/A
7:00 PM82 °FPassing clouds.5 mph45%30.12 "HgN/A
6:30 PM82 °FPassing clouds.5 mph48%30.12 "HgN/A
6:00 PM84 °FPassing clouds.5 mph43%30.12 "HgN/A
5:30 PM84 °FPassing clouds.5 mph43%30.12 "HgN/A
5:00 PM84 °FPassing clouds.5 mph40%30.12 "HgN/A
4:30 PM84 °FPassing clouds.5 mph45%30.12 "HgN/A
4:00 PM84 °FPassing clouds.3 mph45%30.15 "HgN/A
3:30 PM84 °FPassing clouds.6 mph37%30.15 "HgN/A
3:00 PM84 °FPassing clouds.6 mph40%30.15 "HgN/A
2:30 PM84 °FPassing clouds.5 mph40%30.15 "HgN/A
2:00 PM84 °FPassing clouds.2 mph37%30.18 "HgN/A
1:30 PM82 °FPassing clouds.3 mph37%30.18 "HgN/A
1:00 PM81 °FPassing clouds.3 mph48%30.18 "HgN/A
12:30 PM79 °FPassing clouds.3 mph45%30.18 "HgN/A
12:00 PM79 °FPassing clouds.1 mph54%30.18 "HgN/A
11:30 AM77 °FPassing clouds.2 mph54%30.21 "HgN/A
11:00 AM75 °FPassing clouds.2 mph54%30.21 "HgN/A
10:30 AM73 °FPassing clouds.1 mph65%30.21 "HgN/A
10:00 AM72 °FPassing clouds.1 mph65%30.21 "HgN/A
9:30 AM70 °FPassing clouds.1 mph69%30.24 "HgN/A
9:00 AM66 °FPassing clouds.1 mph73%30.24 "HgN/A
8:30 AM64 °FPassing clouds.1 mph78%30.24 "HgN/A
8:00 AM64 °FSunny.1 mph78%30.24 "Hg10 mi
7:30 AM63 °FSunny.No wind83%30.24 "Hg10 mi
7:00 AM61 °FSunny.2 mph88%30.24 "Hg10 mi
5:30 AM57 °FPassing clouds.1 mph94%30.24 "HgN/A
5:00 AM57 °FPassing clouds.1 mph94%30.24 "HgN/A
4:00 AM59 °FPassing clouds.No wind88%30.24 "HgN/A
2:00 AM61 °FClear.No wind88%30.24 "Hg10 mi
1:00 AM61 °FClear.1 mph88%30.24 "Hg10 mi
12:00 AM64 °FClear.No wind78%30.24 "Hg10 mi
11:00 PM
Sat, Jul 4
66 °FClear.1 mph73%30.24 "Hg10 mi
Weather by CustomWeather, © 2015

See weather overviewHow to use our weather pages